Regional Weather Roundup
Issued by NWS Charleston, SC

Current Version | Previous Version | Text Only | Print | Product List | Glossary On
Versions: 1 2 3 4 5 6 7 8 9 10 11 12 13 14 15 16 17 18 19 20 21 22 23 24 25 26 27 28 29 30 31 32 33 34 35 36 37 38 39 40 41 42 43 44 45 46 47 48 49 50
000 ASUS42 KCHS 252110 RWRCHS REGIONAL WEATHER ROUNDUP NATIONAL WEATHER SERVICE CHARLESTON SC 500 PM EDT FRI JUL 25 2014 NOTE: "FAIR" INDICATES FEW OR NO CLOUDS BELOW 12,000 FEET WITH NO SIGNIFICANT WEATHER AND/OR OBSTRUCTIONS TO VISIBILITY. NOT ALL STATIONS ARE QUALITY CONTROLLED BY THE NATIONAL WEATHER SERVICE. USE DATA WITH CAUTION...ESPECIALLY DEWPOINT OBSERVATIONS. SCZ027-030-031-034>040-042>050-252200- ...SOUTH CAROLINA... CITY SKY/WX TMP DP RH WIND PRES REMARKS N CHARLESTON CLOUDY 76 72 87 SE7 29.99F WATERFRONT PRK N/A 75 N/A N/A S13 N/A FORT JOHNSON NOT AVBL MOUNT PLEASANT FAIR 73 73 100 CALM 30.00F FOG JOHNS ISLAND CLOUDY 73 70 88 CALM 30.00F FOG PINOPOLIS N/A 75 72 88 SE3G12 29.92S MONCKS CORNER N/A 73 73 100 CALM 30.01R SUMMERVILLE FAIR 75 73 94 E5 30.00R BEAUFORT MCAS TSTM 78 75 90 SE18 29.96R VSB 3/4 BEAUFORT ARPT CLOUDY 79 73 83 E15G26 29.97R THUNDER HILTON HEAD IS MOSUNNY 90 79 70 S7 29.97S HX 105 GEORGETOWN NOT AVBL WALTERBORO MOCLDY 84 79 84 SE13 29.97R HX 96 ORANGEBURG CLOUDY 84 75 74 E7 29.97R HX 92 BARNWELL FAIR 91 72 52 W6 29.95R HX 98 AIKEN FAIR 90 73 58 N6 30.00R HX 98 MANNING MOCLDY 81 81 100 SE7 30.00S HX 91 KINGSTREE NOT AVBL COLUMBIA PTSUNNY 90 70 51 NE8 29.96R HX 95 SUMTER MOSUNNY 85 75 72 E10 29.98S HX 93 FLORENCE CLOUDY 83 73 72 SE10 29.99F MYRTLE BEACH CLOUDY 81 75 83 SE7 29.99F FOG N MYRTLE BEACH CLOUDY 81 74 79 SE7 29.99F $$ GAZ063-065-086>088-099>101-113>116-118-119-134-136>141-150-252200- ...GEORGIA... CITY SKY/WX TMP DP RH WIND PRES REMARKS SAVANNAH ARPT PTSUNNY 94 71 47 SW12 29.94F HX 101 HUNTER AAF MOSUNNY 93 73 51 S8 29.93F HX 101 FORT STEWART MOSUNNY 93 70 45 SW10 29.94F HX 99 STATESBORO NOT AVBL SYLVANIA MOCLDY 90 77 65 W5 29.96R HX 102 CLAXTON MOCLDY 93 73 52 S3 29.94S HX 102 THOMSON MOSUNNY 89 78 70 NW5 30.00R HX 104 AUGUSTA-BUSH PTSUNNY 90 72 55 E6 29.93F HX 97 AUGUSTA-DANIEL MOSUNNY 92 71 50 VRB7 29.95F HX 98 SWAINSBORO CLOUDY 90 75 62 NW5 29.95S HX 100 VIDALIA N/A 91 70 49 W7 29.95S HX 97 ALMA MOSUNNY 94 66 39 W9 29.95F HX 97 WAYCROSS SUNNY 97 72 44 W9 29.95F HX 106 JESUP NOT AVBL BRUNSWICK MOSUNNY 95 66 38 S12 29.97S HX 98 SAINT SIMONS PTSUNNY 86 77 74 S15G21 29.97S HX 97 $$ SCZ027-028-034-036>038-045-046-048>050-GAZ119-141-252200- ...LAKE AND SUPPLEMENTAL COASTAL OBSERVATIONS... STATION/POSITION TIME TEMP WIND PRES WAVE SWELL AIR SEA DIR/SP/G HT/PER HT/PER/DIR (UTC) (F) (DEG/KT/KT) (MB) (FT/S) (FT/S/D) UPR LAKE MARION NOT AVBL WINYAH BAY 2000 75 230/ 3 1016.0F LAKE MURRAY 2000 85 10/ 2/ 6 1013.9F ACE BASIN NERRS 2000 77 40/ 3 1015.0S FORT PULASKI 2100 87 160/ 9/ 17 1014.6R SAPELO ISLAND 2000 95 210/ 9 1016.0S $$ ANZ835-935-AMZ111-154-330-350-352-354-374-450-454-472-252200- ...C-MAN AND BUOY OBSERVATIONS... STATION/POSITION TIME TEMP WIND PRES WAVE SWELL AIR SEA DIR/SP/G HT/PER HT/PER/DIR (UTC) (F) (DEG/KT/KT) (MB) (FT/S) (FT/S/D) FOLLY BEACH CMAN 2000 70/ 2/ 2 1017.3R BUOY 41004 2100 83 83 230/ 10/ 12 1015.9R 3/ 4 2/ 5 BUOY 41008 2100 84 85 170/ 16/ 17 1014.9F 2/ 3 2/100/ 7 5E ST. MARYS GA 2100 85 N/A 2/ 3 FRYING PAN BUOY NOT AVBL BUOY 41025 2100 VRB 6/ 8 1016.2F 3/ 7 3/180/ 7 CAPE LOOKOUT NC 2000 78 100/ 11/ 12 1016.5F BUOY 41002 2000 80 82 230/ 10/ 12 1017.1F 4/ 6 3/230/ 6 BUOY 41010 2100 84 85 180/ 8/ 10 1017.9R 2/ 7 2/130/ 7 BUOY 41012 NOT AVBL ST AUGUSTINE FL 2100 77 220/ 10/ 12 1017.6F CAPERS NEARSHORE 2000 74 360/ 6/ 10 N/A FRIPP NEARSHORE NOT AVBL $$

USA.gov is the U.S. government's official web portal to all federal, state and local government web resources and services.